When you browse on this site, cookies collect data to enhance your experience and personalize the content and advertising you see.
Visit our Privacy Policy to learn more. By continuing to use the site, you agree to this use of cookies and data.

Previsão horária em Vorony

Hoje, 10 Julho, Sexta-feira

Tempo Temperatura Precipitação Vento Pressão Humidade
00:00 +10°C° 0 mm 2 m/s 750 mmHg 94%
01:00 +9°C° 0 mm 2 m/s 750 mmHg 95%
02:00 +10°C° 0 mm 1 m/s 751 mmHg 95%
03:00 +9°C° 0 mm 2 m/s 751 mmHg 94%
04:00 +10°C° 0 mm 2 m/s 750 mmHg 93%
05:00 +10°C° 0 mm 2 m/s 750 mmHg 92%
06:00 +13°C° 0 mm 2 m/s 750 mmHg 85%
07:00 +13°C° 0 mm 3 m/s 750 mmHg 78%
08:00 +16°C° 0 mm 3 m/s 750 mmHg 70%
09:00 +16°C° 0.3 mm 3 m/s 750 mmHg 76%
10:00 +14°C° 0.3 mm 3 m/s 749 mmHg 82%
11:00 +14°C° 0.3 mm 3 m/s 749 mmHg 88%
12:00 +14°C° 1.3 mm 4 m/s 748 mmHg 91%
13:00 +14°C° 1.3 mm 4 m/s 748 mmHg 94%
14:00 +14°C° 1.3 mm 5 m/s 747 mmHg 96%
15:00 +15°C° 0.4 mm 4 m/s 747 mmHg 96%
16:00 +17°C° 0.4 mm 4 m/s 747 mmHg 95%
17:00 +18°C° 0.4 mm 3 m/s 746 mmHg 94%
18:00 +18°C° 0.5 mm 3 m/s 746 mmHg 94%
19:00 +18°C° 0.5 mm 3 m/s 746 mmHg 94%
20:00 +18°C° 0.5 mm 2 m/s 746 mmHg 95%
21:00 +18°C° 0 mm 2 m/s 746 mmHg 96%
22:00 +17°C° 0 mm 2 m/s 746 mmHg 97%
23:00 +17°C° 0 mm 2 m/s 746 mmHg 97%

Amanhã, 11 Julho, Sábado

Tempo Temperatura Precipitação Vento Pressão Humidade
00:00 +17°C° 0 mm 2 m/s 746 mmHg 98%
01:00 +17°C° 0 mm 2 m/s 746 mmHg 98%
02:00 +17°C° 0 mm 3 m/s 746 mmHg 98%
03:00 +18°C° 0.3 mm 3 m/s 745 mmHg 97%
04:00 +18°C° 0.3 mm 4 m/s 745 mmHg 97%
05:00 +17°C° 0.3 mm 5 m/s 744 mmHg 97%
06:00 +19°C° 0.1 mm 5 m/s 745 mmHg 95%
07:00 +19°C° 0.1 mm 5 m/s 745 mmHg 93%
08:00 +20°C° 0.1 mm 5 m/s 746 mmHg 91%
09:00 +20°C° 0 mm 5 m/s 747 mmHg 79%
10:00 +21°C° 0 mm 6 m/s 747 mmHg 68%
11:00 +21°C° 0 mm 6 m/s 748 mmHg 56%
12:00 +21°C° 0 mm 6 m/s 748 mmHg 53%
13:00 +21°C° 0 mm 6 m/s 749 mmHg 51%
14:00 +22°C° 0 mm 6 m/s 749 mmHg 48%
15:00 +21°C° 0 mm 5 m/s 750 mmHg 49%
16:00 +21°C° 0 mm 5 m/s 750 mmHg 51%
17:00 +21°C° 0 mm 5 m/s 750 mmHg 52%
18:00 +20°C° 0 mm 4 m/s 750 mmHg 59%
19:00 +18°C° 0 mm 3 m/s 751 mmHg 67%
20:00 +17°C° 0 mm 2 m/s 751 mmHg 74%
21:00 +16°C° 0 mm 2 m/s 751 mmHg 77%
22:00 +15°C° 0 mm 2 m/s 751 mmHg 79%
23:00 +14°C° 0 mm 2 m/s 752 mmHg 82%

Depois de amanhã, 12 Julho, Domingo

Tempo Temperatura Precipitação Vento Pressão Humidade
00:00 +14°C° 0 mm 2 m/s 752 mmHg 85%
01:00 +13°C° 0 mm 1 m/s 752 mmHg 87%
02:00 +13°C° 0 mm 1 m/s 752 mmHg 89%
03:00 +13°C° 0.1 mm 1 m/s 752 mmHg 90%
04:00 +13°C° 0.1 mm 1 m/s 752 mmHg 91%
05:00 +13°C° 0.1 mm 1 m/s 752 mmHg 91%
06:00 +14°C° 0 mm 1 m/s 752 mmHg 86%
07:00 +14°C° 0 mm 1 m/s 753 mmHg 81%
08:00 +15°C° 0 mm 1 m/s 753 mmHg 76%
09:00 +16°C° 0 mm 2 m/s 753 mmHg 69%
10:00 +17°C° 0 mm 2 m/s 753 mmHg 63%
11:00 +18°C° 0 mm 2 m/s 753 mmHg 56%
12:00 +18°C° 0 mm 2 m/s 753 mmHg 53%
13:00 +19°C° 0 mm 2 m/s 752 mmHg 49%
14:00 +20°C° 0 mm 2 m/s 752 mmHg 46%
15:00 +20°C° 0 mm 2 m/s 752 mmHg 48%
16:00 +20°C° 0 mm 2 m/s 752 mmHg 49%
17:00 +20°C° 0 mm 2 m/s 752 mmHg 51%
18:00 +19°C° 0 mm 1 m/s 751 mmHg 59%
19:00 +18°C° 0 mm 1 m/s 751 mmHg 67%
20:00 +16°C° 0 mm 1 m/s 751 mmHg 75%
21:00 +15°C° 0 mm 1 m/s 751 mmHg 78%
22:00 +14°C° 0 mm 1 m/s 751 mmHg 82%
23:00 +13°C° 0 mm 1 m/s 751 mmHg 85%

13 Julho, Segunda-feira

Tempo Temperatura Precipitação Vento Pressão Humidade
00:00 +13°C° 0 mm 1 m/s 751 mmHg 88%
01:00 +12°C° 0 mm 1 m/s 751 mmHg 91%
02:00 +11°C° 0 mm 1 m/s 751 mmHg 94%
03:00 +10°C° 0 mm 2 m/s 751 mmHg 94%
04:00 +10°C° 0 mm 2 m/s 751 mmHg 93%
05:00 +10°C° 0 mm 2 m/s 750 mmHg 93%
06:00 +13°C° 0 mm 2 m/s 750 mmHg 85%
07:00 +15°C° 0 mm 2 m/s 750 mmHg 77%
08:00 +17°C° 0 mm 2 m/s 750 mmHg 69%
09:00 +18°C° 0.1 mm 2 m/s 750 mmHg 64%
10:00 +19°C° 0.1 mm 2 m/s 750 mmHg 58%
11:00 +20°C° 0.1 mm 3 m/s 750 mmHg 53%
12:00 +21°C° 0.2 mm 3 m/s 749 mmHg 52%
13:00 +21°C° 0.2 mm 3 m/s 749 mmHg 51%
14:00 +21°C° 0.2 mm 3 m/s 749 mmHg 50%
15:00 +21°C° 0.1 mm 3 m/s 748 mmHg 52%
16:00 +21°C° 0.1 mm 3 m/s 748 mmHg 53%
17:00 +21°C° 0.1 mm 3 m/s 748 mmHg 54%
18:00 +19°C° 0 mm 2 m/s 748 mmHg 61%
19:00 +18°C° 0 mm 2 m/s 748 mmHg 67%
20:00 +16°C° 0 mm 2 m/s 748 mmHg 74%
21:00 +15°C° 0 mm 2 m/s 748 mmHg 77%
22:00 +14°C° 0 mm 2 m/s 748 mmHg 80%
23:00 +12°C° 0 mm 2 m/s 748 mmHg 84%

14 Julho, Terça-feira

Tempo Temperatura Precipitação Vento Pressão Humidade
00:00 +12°C° 0 mm 2 m/s 748 mmHg 88%
01:00 +12°C° 0 mm 2 m/s 748 mmHg 92%
02:00 +10°C° 0 mm 2 m/s 748 mmHg 96%
03:00 +10°C° 0 mm 3 m/s 748 mmHg 95%
04:00 +10°C° 0 mm 3 m/s 748 mmHg 94%
05:00 +11°C° 0 mm 3 m/s 748 mmHg 93%
06:00 +12°C° 0 mm 3 m/s 748 mmHg 84%
07:00 +13°C° 0 mm 4 m/s 748 mmHg 76%
08:00 +15°C° 0 mm 4 m/s 748 mmHg 67%
09:00 +17°C° 0 mm 4 m/s 748 mmHg 61%
10:00 +18°C° 0 mm 4 m/s 748 mmHg 56%
11:00 +20°C° 0 mm 4 m/s 748 mmHg 50%
12:00 +20°C° 0 mm 4 m/s 748 mmHg 45%
13:00 +21°C° 0 mm 4 m/s 748 mmHg 41%
14:00 +21°C° 0 mm 4 m/s 748 mmHg 36%
15:00 +21°C° 0 mm 4 m/s 748 mmHg 37%
16:00 +21°C° 0 mm 4 m/s 748 mmHg 39%
17:00 +21°C° 0 mm 4 m/s 748 mmHg 40%
18:00 +19°C° 0 mm 3 m/s 748 mmHg 51%
19:00 +18°C° 0 mm 3 m/s 748 mmHg 62%
20:00 +16°C° 0 mm 2 m/s 748 mmHg 73%
21:00 +15°C° 0 mm 2 m/s 748 mmHg 77%
22:00 +14°C° 0 mm 2 m/s 748 mmHg 81%
23:00 +13°C° 0 mm 2 m/s 748 mmHg 86%

15 Julho, Quarta-feira

Tempo Temperatura Precipitação Vento Pressão Humidade
00:00 +12°C° 0 mm 2 m/s 749 mmHg 88%
01:00 +10°C° 0 mm 2 m/s 749 mmHg 90%
02:00 +10°C° 0 mm 2 m/s 749 mmHg 91%
03:00 +10°C° 0 mm 2 m/s 749 mmHg 91%
04:00 +10°C° 0 mm 2 m/s 749 mmHg 90%
05:00 +11°C° 0 mm 1 m/s 749 mmHg 89%
06:00 +14°C° 0 mm 2 m/s 749 mmHg 81%
07:00 +16°C° 0 mm 2 m/s 749 mmHg 73%
08:00 +18°C° 0 mm 2 m/s 749 mmHg 65%
09:00 +19°C° 0 mm 3 m/s 749 mmHg 60%
10:00 +21°C° 0 mm 3 m/s 749 mmHg 56%
11:00 +22°C° 0 mm 3 m/s 749 mmHg 52%
12:00 +22°C° 0.1 mm 3 m/s 749 mmHg 50%
13:00 +24°C° 0.1 mm 3 m/s 749 mmHg 48%
14:00 +25°C° 0.1 mm 3 m/s 749 mmHg 46%
15:00 +24°C° 0 mm 3 m/s 749 mmHg 48%
16:00 +24°C° 0 mm 2 m/s 749 mmHg 50%
17:00 +24°C° 0 mm 2 m/s 749 mmHg 52%
18:00 +21°C° 0 mm 2 m/s 749 mmHg 60%
19:00 +21°C° 0 mm 1 m/s 749 mmHg 69%
20:00 +19°C° 0 mm 1 m/s 749 mmHg 77%
21:00 +18°C° 0 mm 1 m/s 749 mmHg 81%
22:00 +16°C° 0 mm 1 m/s 749 mmHg 84%
23:00 +14°C° 0 mm 1 m/s 749 mmHg 88%
Mostrar mais